{"data":{"norad_id":68191,"epoch":"2026-05-25T01:27:11.546784Z","epoch_age_seconds":79883,"freshness":"FRESH","line1":"1 68191U 26050AA  26145.06055031  .00029764  00000+0  88806-3 0  9996","line2":"2 68191  53.1578 271.4539 0001027  87.5326 272.5794 15.34417560 12384","mean_motion":15.3441756,"eccentricity":0.0001027,"inclination_deg":53.1578,"raan_deg":271.4539,"arg_perigee_deg":87.5326,"mean_anomaly_deg":272.5794,"bstar":0.00088806,"rev_number":1238,"period_min":93.846684079919,"perigee_km":461.94849975165,"apogee_km":463.35359761685,"semimajor_km":6840.7880486842,"source":"CELESTRAK","updated_at":"2026-05-25T13:38:21.857543Z"}}